EW2279 Weather Reports


time (UTC)temp
C
wind
direction
speed
KPH
gust
KPH
rain 1hr
cm
rain 24hr
cm
rain mn
cm
humidity
%
barometer
mb
20260508213123 -17 0.0 0.0 0.00 0.00 0.00 1013.0
20260508211302 19 135 1.6 3.2 0.00 0.00 0.00 52 1012.6
20260508210754 19 135 1.6 3.2 0.00 0.00 0.00 52 1012.6
20260508210254 -17 0.0 0.0 0.00 0.00 0.00 1012.6
20260508203053 19 135 1.6 4.8 0.00 0.00 0.00 51 1013.0
20260508202523 19 135 3.2 4.8 0.00 0.00 0.00 51 1012.6
20260508202025 19 135 3.2 3.2 0.00 0.00 0.00 53 1012.6
20260508200625 -17 0.0 0.0 0.00 0.00 0.00 1013.0
20260508195054 -17 0.0 0.0 0.00 0.00 0.00 1013.3
20260508191935 20 135 3.2 4.8 0.00 0.00 0.00 51 1013.7
20260508191422 20 135 4.8 4.8 0.00 0.00 0.00 50 1013.7
20260508190653 -17 0.0 0.0 0.00 0.00 0.00 1013.7
20260508184112 20 135 3.2 4.8 0.00 0.00 0.00 50 1014.4
20260508183553 -17 0.0 0.0 0.00 0.00 0.00 1014.4
20260508181051 19 135 1.6 1.6 0.00 0.00 0.00 49 1014.4
20260508180223 -17 0.0 0.0 0.00 0.00 0.00 1014.4
20260508173249 18 135 3.2 4.8 0.00 0.00 0.00 52 1015.2
20260508172721 18 135 3.2 4.8 0.00 0.00 0.00 52 1015.2
20260508172450 -17 0.0 0.0 0.00 0.00 0.00 1015.2
20260508164352 -17 0.0 0.0 0.00 0.00 0.00 1015.9
20260508162449 -17 0.0 0.0 0.00 0.00 0.00 1016.3
20260508160618 16 135 0.0 0.0 0.00 0.00 0.00 57 1016.3
20260508155949 16 135 0.0 0.0 0.00 0.00 0.00 57 1016.6
20260508155449 16 135 0.0 0.0 0.00 0.00 0.00 61 1016.6
20260508154418 -17 0.0 0.0 0.00 0.00 0.00 1016.6
20260508151248 16 135 0.0 0.0 0.00 0.00 0.00 67 1017.3
20260508150246 16 135 0.0 0.0 0.00 0.00 0.00 67 1017.0
20260508145319 15 0.0 0.0 0.00 0.00 0.00 71 1017.0
20260508143847 -17 0.0 0.0 0.00 0.00 0.00 1017.3
20260508140846 13 135 4.8 4.8 0.00 0.00 0.00 73 1017.3
20260508140348 -17 0.0 0.0 0.00 0.00 0.00 1017.8
20260508134317 13 135 0.0 0.0 0.00 0.00 0.00 94 1017.3
20260508133248 13 135 0.0 0.0 0.00 0.00 0.00 94 1017.8
20260508133019 -17 0.0 0.0 0.00 0.00 0.00 1017.3
20260508124519 7 135 0.0 0.0 0.00 0.00 0.00 99 1017.3
20260508124013 7 135 0.0 0.0 0.00 0.00 0.00 99 1017.3
20260508123513 5 135 0.0 0.0 0.00 0.00 0.00 99 1017.3
20260508122615 5 135 0.0 0.0 0.00 0.00 0.00 99 1017.0
20260508121544 4 135 0.0 0.0 0.00 0.00 0.00 99 1017.0
20260508120815 -17 0.0 0.0 0.00 0.00 0.00 1016.6
20260508114429 4 135 0.0 0.0 0.00 0.00 0.00 99 1016.3
20260508113915 -17 0.0 0.0 0.00 0.00 0.00 1016.3
20260508112146 -17 0.0 0.0 0.00 0.00 0.00 1015.9
20260508104016 -17 0.0 0.0 0.00 0.05 0.00 1015.5
20260508100645 -17 0.0 0.0 0.00 0.05 0.00 1015.2
20260508094943 4 135 0.0 0.0 0.00 0.05 0.00 99 1015.2
20260508094312 4 135 0.0 0.0 0.00 0.05 0.00 99 1014.7
20260508093812 5 135 0.0 0.0 0.00 0.05 0.00 99 1014.7
20260508092813 -17 0.0 0.0 0.00 0.05 0.00 1015.2
20260508085742 5 135 0.0 0.0 0.00 0.05 0.00 99 1014.7
20260508085131 5 135 0.0 0.0 0.00 0.05 0.00 99 1014.7
20260508084612 -17 0.0 0.0 0.00 0.05 0.00 1014.7
20260508080541 6 135 0.0 0.0 0.00 0.05 0.00 99 1014.7
20260508075844 6 135 0.0 0.0 0.00 0.05 0.00 99 1014.4
20260508074641 6 135 0.0 0.0 0.00 0.05 0.00 99 1014.7
20260508073941 6 135 0.0 0.0 0.00 0.05 0.00 99 1014.7
20260508073442 -17 0.0 0.0 0.00 0.05 0.00 1014.4
20260508071644 -17 0.0 0.0 0.00 0.05 0.00 1014.4
20260508065513 6 135 0.0 0.0 0.00 0.05 0.00 99 1014.4
20260508063539 6 135 0.0 1.6 0.00 0.05 0.00 99 1014.4
20260508062310 6 135 0.0 0.0 0.00 0.05 0.00 99 1014.7
20260508061612 -17 0.0 0.0 0.00 0.05 0.00 1014.7
20260508055411 7 135 0.0 0.0 0.00 0.05 0.00 99 1014.7
20260508054639 7 90 0.0 0.0 0.00 0.05 0.00 99 1014.7
20260508054141 -17 0.0 0.0 0.00 0.05 0.00 1014.7
20260508051139 -17 0.0 0.0 0.00 0.05 0.00 1015.2
20260508044110 -17 0.0 0.0 0.00 0.05 0.00 1014.4
20260508040809 6 135 0.0 0.0 0.00 0.05 0.00 98 1014.4
20260508035508 -17 0.0 0.0 0.00 0.05 0.05 1014.4
20260508033952 6 135 0.0 0.0 0.00 0.05 0.05 98 1014.4
20260508033438 7 135 0.0 0.0 0.00 0.05 0.05 98 1014.4
20260508032929 7 135 0.0 0.0 0.00 0.05 0.05 98 1014.7
20260508032408 7 135 0.0 0.0 0.00 0.05 0.05 98 1014.7
20260508031819 7 135 0.0 0.0 0.00 0.05 0.05 98 1014.7
20260508031316 7 135 0.0 0.0 0.00 0.05 0.05 98 1014.7
20260508030809 -17 0.0 0.0 0.00 0.05 0.05 1014.7
20260508023141 7 135 0.0 0.0 0.00 0.05 0.05 98 1014.4
20260508021236 -17 0.0 0.0 0.00 0.05 0.05 1014.1
20260508014707 8 135 0.0 0.0 0.00 0.05 0.05 97 1013.7
20260508013536 8 135 0.0 0.0 0.00 0.05 0.05 97 1013.7
20260508012608 -17 0.0 0.0 0.00 0.05 0.05 1013.7
20260508011535 8 135 0.0 0.0 0.00 0.05 0.05 96 1013.3
20260508011037 8 135 0.0 0.0 0.00 0.05 0.05 95 1013.3
20260508010104 8 135 0.0 0.0 0.00 0.05 0.05 95 1013.3
20260508005536 8 135 0.0 0.0 0.00 0.05 0.05 95 1013.3
20260508004637 -17 0.0 0.0 0.00 0.05 0.05 1013.3
20260508002937 -17 0.0 0.0 0.00 0.08 0.05 1013.3
20260508001508 10 135 0.0 0.0 0.00 0.08 0.05 94 1013.0
20260508001006 -17 0.0 0.0 0.00 0.08 0.05 1013.0
20260507235824 10 135 0.0 0.0 0.00 0.08 0.05 95 1013.0
20260507235316 10 135 0.0 0.0 0.00 0.08 0.05 94 1013.0
20260507235037 -17 0.0 0.0 0.00 0.08 0.05 1013.0
20260507231536 -17 0.0 0.0 0.00 0.08 0.05 1012.6
20260507225425 11 135 3.2 4.8 0.00 0.08 0.05 91 1012.6
20260507224905 11 135 0.0 0.0 0.00 0.08 0.05 90 1012.6
20260507223906 -17 0.0 0.0 0.00 0.08 0.05 1012.6
20260507221506 11 135 0.0 3.2 0.00 0.08 0.05 89 1012.6
20260507221004 -17 0.0 0.0 0.00 0.08 0.05 1012.3
20260507215816 11 135 0.0 0.0 0.00 0.08 0.05 89 1012.3
20260507215306 11 135 3.2 3.2 0.00 0.08 0.05 89 1012.3